Change the Weather History Date:

Wednesday, March 27, 2013

  Actual Average (KGSO) Record (KGSO)
Temperature  
Mean Temperature 38 °F 53 °F  
Max Temperature 48 °F 64 °F 86 °F (1921)
Min Temperature 28 °F 42 °F 17 °F (1955)
Degree Days  
Heating Degree Days 27 12  
Month to date heating degree days 424  
Since 1 July heating degree days 3279  
Cooling Degree Days 0 0  
Month to date cooling degree days 0  
Year to date cooling degree days 0  
Moisture  
Dew Point 23 °F    
Average Humidity 57    
Maximum Humidity 87    
Minimum Humidity 33    
Precipitation  
Precipitation 0.00 in 0.12 in 1.42 in (1936)
Month to date precipitation 3.23  
Year to date precipitation 9.25  
Snow  
Snow 0.00 in 0.00 in 2.30 in (1947)
Month to date snowfall 0.8  
Since 1 July snowfall 7.5  
Snow Depth -    
Sea Level Pressure  
Sea Level Pressure 30.19 in    
Wind  
Wind Speed 5 mph (WNW)    
Max Wind Speed 14 mph    
Max Gust Speed 23 mph    
Visibility 10 miles    
Events      
T = Trace of Precipitation, MM = Missing Value Source: NWS Daily Summary

Daily Weather History Graph

Daily Weather History Graph

Search for Another Location

Airport or City:

Trip Planner

Search our weather history database for the weather conditions in past years. The results will help you decide how hot, cold, wet, or windy it might be!

Date:

Astronomy

Mar. 27, 2013 Rise Set
Actual Time 7:12 AM EDT 7:37 PM EDT
Civil Twilight 6:46 AM EDT 8:03 PM EDT
Nautical Twilight 6:16 AM EDT 8:33 PM EDT
Astronomical Twilight 5:45 AM EDT 9:04 PM EDT
Moon 8:16 PM EDT (3/27) 7:03 AM EDT (3/27)
Length of Visible Light 13h 16m
Length of Day
12h 25m
Full, 100% of the Moon is Illuminated
Mar 27
Full
Apr 3
Last Quarter
Apr 10
New
Apr 18
First Quarter
Apr 25
Full

Hourly Weather History & Observations

Time (EDT) Temp. Windchill Dew Point Humidity Pressure Visibility Wind Dir Wind Speed Gust Speed Precip Events Conditions
12:15 AM 34.5 °F 30.4 °F 26.4 °F 72% 30.14 in 10.0 mi West 4.6 mph - N/A   Clear
12:35 AM 33.8 °F 29.6 °F 26.4 °F 74% 30.14 in 10.0 mi West 4.6 mph - N/A   Clear
12:55 AM 34.3 °F 30.2 °F 26.6 °F 73% 30.14 in 10.0 mi West 4.6 mph - N/A   Clear
1:15 AM 34.0 °F 28.8 °F 26.4 °F 74% 30.14 in 10.0 mi West 5.8 mph - N/A   Clear
1:35 AM 34.3 °F 29.2 °F 26.6 °F 73% 30.14 in 10.0 mi West 5.8 mph - N/A   Clear
1:55 AM 35.4 °F 29.0 °F 27.1 °F 72% 30.14 in 10.0 mi West 8.1 mph - N/A   Clear
2:15 AM 34.7 °F 30.6 °F 27.1 °F 74% 30.14 in 10.0 mi WNW 4.6 mph - N/A   Clear
2:35 AM 34.5 °F 31.6 °F 27.1 °F 74% 30.14 in 10.0 mi WNW 3.5 mph - N/A   Clear
2:55 AM 34.0 °F 31.0 °F 27.0 °F 75% 30.14 in 10.0 mi West 3.5 mph - N/A   Clear
3:15 AM 32.5 °F - 26.2 °F 78% 30.14 in 10.0 mi Calm Calm - N/A   Clear
3:55 AM 28.6 °F - 25.2 °F 87% 30.13 in 10.0 mi Calm Calm - N/A   Clear
4:15 AM 29.3 °F 25.6 °F 25.7 °F 86% 30.14 in 10.0 mi SW 3.5 mph - N/A   Clear
4:55 AM 30.7 °F 26.0 °F 26.4 °F 84% 30.14 in 10.0 mi West 4.6 mph - N/A   Clear
5:15 AM 30.7 °F 24.9 °F 26.1 °F 83% 30.14 in 10.0 mi WNW 5.8 mph - N/A   Clear
5:35 AM 31.8 °F 28.5 °F 26.2 °F 80% 30.15 in 10.0 mi West 3.5 mph - N/A   Clear
5:55 AM 30.4 °F - 26.1 °F 84% 30.16 in 10.0 mi Calm Calm - N/A   Scattered Clouds
6:15 AM 30.4 °F 24.5 °F 25.7 °F 83% 30.16 in 10.0 mi West 5.8 mph - N/A   Scattered Clouds
6:35 AM 31.5 °F 26.8 °F 25.5 °F 79% 30.16 in 10.0 mi West 4.6 mph - N/A   Clear
6:55 AM 28.6 °F - 24.4 °F 84% 30.17 in 10.0 mi Calm Calm - N/A   Clear
7:15 AM 29.3 °F - 24.8 °F 83% 30.18 in 10.0 mi Calm Calm - N/A   Clear
7:35 AM 30.2 °F 26.7 °F 25.0 °F 81% 30.19 in 10.0 mi WSW 3.5 mph - N/A   Clear
7:55 AM 30.2 °F 26.7 °F 26.2 °F 85% 30.19 in 10.0 mi WSW 3.5 mph - N/A   Clear
8:15 AM 33.1 °F 28.7 °F 27.1 °F 79% 30.20 in 10.0 mi West 4.6 mph - N/A   Clear
8:35 AM 36.3 °F 30.8 °F 25.9 °F 66% 30.21 in 10.0 mi West 6.9 mph - N/A   Clear
8:55 AM 37.9 °F 33.5 °F 25.3 °F 60% 30.21 in 10.0 mi West 5.8 mph - N/A   Clear
9:15 AM 39.2 °F 35.9 °F 25.7 °F 58% 30.22 in 10.0 mi WNW 4.6 mph - N/A   Clear
9:35 AM 41.0 °F 36.4 °F 23.0 °F 49% 30.21 in 10.0 mi WNW 6.9 mph - N/A   Clear
9:55 AM 40.5 °F 35.1 °F 21.2 °F 46% 30.22 in 10.0 mi NW 8.1 mph - N/A   Clear
10:15 AM 42.8 °F 38.0 °F 20.7 °F 41% 30.22 in 10.0 mi NNW 8.1 mph 17.3 mph N/A   Clear
10:35 AM 44.8 °F 41.0 °F 21.9 °F 40% 30.21 in 10.0 mi WNW 6.9 mph - N/A   Scattered Clouds
10:55 AM 41.7 °F 36.7 °F 19.4 °F 41% 30.22 in 10.0 mi West 8.1 mph - N/A   Mostly Cloudy
11:15 AM 43.3 °F 39.9 °F 19.0 °F 38% 30.21 in 10.0 mi NNW 5.8 mph - N/A   Mostly Cloudy
11:35 AM 42.3 °F 39.4 °F 19.2 °F 40% 30.22 in 10.0 mi North 4.6 mph - N/A   Mostly Cloudy
11:55 AM 44.1 °F 38.1 °F 19.6 °F 38% 30.22 in 10.0 mi North 11.5 mph 17.3 mph N/A   Scattered Clouds
12:15 PM 45.9 °F 40.8 °F 20.3 °F 36% 30.22 in 10.0 mi NNW 10.4 mph 16.1 mph N/A   Mostly Cloudy
12:35 PM 46.4 °F 41.1 °F 19.6 °F 34% 30.22 in 10.0 mi NW 11.5 mph - N/A   Scattered Clouds
12:55 PM 45.1 °F 40.3 °F 19.4 °F 36% 30.22 in 10.0 mi NW 9.2 mph - N/A   Mostly Cloudy
1:15 PM 46.9 °F - 19.4 °F 34% 30.21 in 10.0 mi West 6.9 mph - N/A   Mostly Cloudy
1:35 PM 45.5 °F 41.8 °F 18.7 °F 34% 30.21 in 10.0 mi WNW 6.9 mph - N/A   Mostly Cloudy
1:55 PM 45.5 °F 40.3 °F 19.4 °F 35% 30.21 in 10.0 mi WNW 10.4 mph 17.3 mph N/A   Scattered Clouds
2:15 PM 46.2 °F 41.2 °F 19.8 °F 35% 30.20 in 10.0 mi North 10.4 mph 19.6 mph N/A   Scattered Clouds
2:35 PM 48.7 °F - 20.7 °F 33% 30.20 in 10.0 mi WNW 11.5 mph 23.0 mph N/A   Scattered Clouds
2:55 PM 48.4 °F - 20.1 °F 33% 30.20 in 10.0 mi NW 13.8 mph 21.9 mph N/A   Scattered Clouds
3:15 PM 48.2 °F - 20.7 °F 34% 30.20 in 10.0 mi NW 10.4 mph 18.4 mph N/A   Mostly Cloudy
3:35 PM 48.0 °F - 20.5 °F 34% 30.20 in 10.0 mi NNW 11.5 mph 19.6 mph N/A   Mostly Cloudy
3:55 PM 47.3 °F - 20.5 °F 35% 30.19 in 10.0 mi WNW 6.9 mph 16.1 mph N/A   Scattered Clouds
4:15 PM 46.6 °F - 19.9 °F 35% 30.18 in 10.0 mi NNW 8.1 mph - N/A   Scattered Clouds
4:35 PM 46.9 °F - 19.2 °F 33% 30.18 in 10.0 mi WNW 9.2 mph 16.1 mph N/A   Scattered Clouds
4:55 PM 48.0 °F - 19.8 °F 33% 30.18 in 10.0 mi NNW 8.1 mph 18.4 mph N/A   Mostly Cloudy
5:15 PM 46.0 °F 43.1 °F 19.6 °F 35% 30.18 in 10.0 mi NNW 5.8 mph - N/A   Scattered Clouds
5:35 PM 45.3 °F 42.3 °F 18.9 °F 35% 30.18 in 10.0 mi NNW 5.8 mph - N/A   Mostly Cloudy
5:55 PM 45.5 °F 41.3 °F 19.0 °F 35% 30.18 in 10.0 mi NW 8.1 mph - N/A   Scattered Clouds
6:15 PM 45.0 °F 39.7 °F 19.6 °F 36% 30.19 in 10.0 mi WNW 10.4 mph - N/A   Scattered Clouds
6:35 PM 44.6 °F 40.7 °F 19.2 °F 36% 30.19 in 10.0 mi NW 6.9 mph - N/A   Scattered Clouds
6:55 PM 43.9 °F 41.3 °F 19.0 °F 37% 30.19 in 10.0 mi NW 4.6 mph - N/A   Clear
7:15 PM 43.2 °F 41.5 °F 20.1 °F 40% 30.20 in 10.0 mi NW 3.5 mph - N/A   Scattered Clouds
7:35 PM 42.4 °F - 21.0 °F 43% 30.21 in 10.0 mi Calm Calm - N/A   Mostly Cloudy
7:55 PM 41.9 °F - 21.6 °F 44% 30.21 in 10.0 mi Calm Calm - N/A   Overcast
8:15 PM 40.1 °F 38.0 °F 22.6 °F 50% 30.21 in 10.0 mi West 3.5 mph - N/A   Scattered Clouds
8:35 PM 37.0 °F - 23.0 °F 57% 30.22 in 10.0 mi Calm Calm - N/A   Clear
8:55 PM 34.7 °F 31.8 °F 23.9 °F 65% 30.22 in 10.0 mi WNW 3.5 mph - N/A   Mostly Cloudy
9:15 PM 37.2 °F 34.7 °F 23.5 °F 58% 30.22 in 10.0 mi WNW 3.5 mph - N/A   Mostly Cloudy
9:35 PM 38.3 °F 35.9 °F 23.0 °F 54% 30.23 in 10.0 mi West 3.5 mph - N/A   Scattered Clouds
9:55 PM 34.2 °F - 23.0 °F 64% 30.23 in 10.0 mi Calm Calm - N/A   Clear
10:15 PM 33.4 °F - 23.0 °F 66% 30.24 in 10.0 mi Calm Calm - N/A   Clear
10:35 PM 35.1 °F 32.2 °F 23.7 °F 63% 30.24 in 5.0 mi West 3.5 mph - N/A   Haze
10:55 PM 32.2 °F - 23.5 °F 70% 30.24 in 10.0 mi Calm Calm - N/A   Scattered Clouds
11:15 PM 33.3 °F - 23.9 °F 69% 30.24 in 10.0 mi Calm Calm - N/A   Clear
11:35 PM 28.2 °F - 23.0 °F 81% 30.24 in 10.0 mi Calm Calm - N/A   Clear
11:55 PM 30.9 °F - 23.5 °F 74% 30.24 in 10.0 mi Calm Calm - N/A   Clear